{"data":{"norad_id":31574,"intl_designator":"2007-020D","name":"GLOBALSTAR M072","alt_names":[],"object_type":"PAYLOAD","status":"ACTIVE","operator":null,"country":"GLOB","launch_date":"2007-05-29","launch_site_code":"TYMSC","launch_vehicle":null,"mission":null,"orbit_class":"UNKNOWN","rcs_meters":2.2696,"size_class":null,"mass_kg":null,"dimensions":null,"purposes":["comms"],"wikipedia_slug":null,"has_3d_model":false,"image_url":null,"decayed_at":null,"tle_current":{"epoch":"2026-05-25T01:29:20.676768Z","epoch_age_seconds":65852,"freshness":"FRESH","line1":"1 31574U 07020D   26145.06204487 -.00000072  00000+0  17109-3 0  9998","line2":"2 31574  51.9897 161.8116 0001370 265.1844 128.5001 11.91658311872220","mean_motion":11.91658311,"eccentricity":0.000137,"inclination_deg":51.9897,"raan_deg":161.8116,"arg_perigee_deg":265.1844,"mean_anomaly_deg":128.5001,"bstar":0.00017109,"rev_number":87222,"period_min":120.84000813888,"perigee_km":1717.3163543235,"apogee_km":1719.5348124714,"semimajor_km":8096.5625833974,"source":"CELESTRAK","updated_at":"2026-05-25T13:38:23.038757Z"}}}